This demonstration page uses our WeatherBlox Daily Observations layout. Learn more.

39.51506, -84.39828

Hourly Observations for December 12, 2019

Temp ( °F °C ) Dew Point ( °F °C ) Humidity (%) Winds ( mph kmh ) Pressure ( in mb ) Visibility ( mi km ) Precip ( " mm )
12:15 am 00:15 Clear 18 -7.6 17 -8.6 93 93 N 5 7 30.62 1037 7 11.265408 N/A
12:35 am 00:35 Clear 20 -6.6 18 -8 90 90 NNE 6 9 30.62 1037 10 16.09344 N/A
12:55 am 00:55 Clear 20 -6.4 17 -8.2 87 87 NNE 3 6 30.62 1037 10 16.09344 N/A
1:15 am 01:15 Clear 20 -6.8 17 -8.1 91 91 Calm 30.62 1037 10 16.09344 N/A
1:35 am 01:35 Clear 19 -7.2 17 -8.4 91 91 Calm 30.62 1037 7 11.265408 N/A
1:55 am 01:55 Clear with Mist and Fog 18 -7.8 16 -8.8 93 93 Calm 30.62 1037 7 11.265408 N/A
2:15 am 02:15 Clear with Mist and Fog 18 -7.8 17 -8.6 94 94 Calm 30.62 1037 7 11.265408 N/A
2:35 am 02:35 Clear 18 -7.8 16 -8.9 92 92 Calm 30.65 1038 7 11.265408 N/A
2:55 am 02:55 Clear with Mist and Fog 18 -7.6 17 -8.5 93 93 Calm 30.65 1038 7 11.265408 N/A
3:15 am 03:15 Clear with Mist and Fog 18 -7.7 17 -8.6 93 93 Calm 30.65 1038 7 11.265408 N/A
3:35 am 03:35 Clear with Mist and Fog 18 -7.7 17 -8.5 94 94 Calm 30.65 1038 7 11.265408 N/A
3:55 am 03:55 Clear with Mist and Fog 17 -8.4 15 -9.3 93 93 Calm 30.62 1037 7 11.265408 N/A
4:15 am 04:15 Clear with Mist and Fog 17 -8.1 16 -9 93 93 Calm 30.62 1037 5 8.04672 N/A
4:35 am 04:35 Clear with Mist and Fog 18 -7.8 17 -8.6 94 94 Calm 30.62 1037 7 11.265408 N/A
4:55 am 04:55 Clear 18 -7.7 16 -8.7 93 93 Calm 30.62 1037 7 11.265408 N/A
5:15 am 05:15 Clear with Mist and Fog 17 -8.1 15 -9.2 92 92 Calm 30.62 1037 7 11.265408 N/A
5:35 am 05:35 Clear with Mist and Fog 18 -8 16 -9.1 92 92 Calm 30.62 1037 7 11.265408 N/A
5:55 am 05:55 Clear 18 -7.8 16 -8.9 92 92 Calm 30.62 1037 7 11.265408 N/A
6:15 am 06:15 Clear 18 -7.9 16 -9 92 92 NNE 3 6 30.62 1037 7 11.265408 N/A
6:35 am 06:35 Clear 18 -8 15 -9.2 91 91 NNE 3 6 30.62 1037 7 11.265408 N/A
6:55 am 06:55 Clear with Mist and Fog 17 -8.3 15 -9.5 91 91 Calm 30.62 1037 7 11.265408 N/A
7:15 am 07:15 Clear with Mist and Fog 17 -8.2 15 -9.3 92 92 Calm 30.62 1037 7 11.265408 N/A
7:35 am 07:35 Clear with Mist and Fog 17 -8.1 15 -9.2 92 92 Calm 30.62 1037 5 8.04672 N/A
7:55 am 07:55 Sunny with Mist and Fog 17 -8.2 15 -9.4 91 91 Calm 30.62 1037 5 8.04672 N/A
8:15 am 08:15 Sunny with Mist and Fog 18 -7.6 16 -8.8 91 91 Calm 30.62 1037 7 11.265408 N/A
8:35 am 08:35 Sunny with Mist and Fog 20 -6.8 18 -8 91 91 Calm 30.65 1038 5 8.04672 N/A
8:55 am 08:55 Sunny with Mist and Fog 22 -5.6 20 -6.9 91 91 Calm 30.62 1037 5 8.04672 N/A
9:15 am 09:15 Sunny with Mist and Fog 24 -4.4 22 -5.5 92 92 Calm 30.62 1037 5 8.04672 N/A
9:35 am 09:35 Sunny with Mist and Fog 26 -3.4 23 -5.1 88 88 Calm 30.62 1037 7 11.265408 N/A
9:55 am 09:55 Sunny 29 -1.6 22 -5.7 74 74 SE 8 13 30.59 1036 10 16.09344 N/A
10:15 am 10:15 Sunny 30 -0.9 22 -5.4 72 72 SE 7 11 30.59 1036 10 16.09344 N/A
10:35 am 10:35 Sunny 33 0.4 24 -4.3 71 71 Calm 30.59 1036 10 16.09344 N/A
10:55 am 10:55 Sunny 33 0.7 24 -4.7 67 67 S 7 11 30.56 1035 10 16.09344 N/A
11:15 am 11:15 Sunny 35 1.4 24 -4.3 66 66 SSE 5 7 30.56 1035 10 16.09344 N/A
11:35 am 11:35 Sunny 35 1.8 24 -4.3 64 64 SE 5 7 30.56 1035 10 16.09344 N/A
11:55 am 11:55 Sunny 37 2.7 25 -4 62 62 SE 7 11 30.53 1034 10 16.09344 N/A
12:15 pm 12:15 Sunny 38 3.3 24 -4.2 58 58 SE 5 7 30.53 1034 10 16.09344 N/A
12:35 pm 12:35 Sunny 40 4.2 24 -4.5 54 54 S 8 13 30.5 1033 10 16.09344 N/A
12:55 pm 12:55 Sunny 40 4.5 24 -4.6 52 52 S 7 11 30.5 1033 10 16.09344 N/A
1:15 pm 13:15 Sunny 41 5 24 -4.6 50 50 S 8 13 30.48 1032 10 16.09344 N/A
1:35 pm 13:35 Sunny 42 5.4 24 -4.7 49 49 SSE 8 13 30.48 1032 10 16.09344 N/A
1:55 pm 13:55 Sunny 42 5.8 24 -4.5 48 48 S 6 9 30.45 1031 10 16.09344 N/A
2:15 pm 14:15 Sunny 43 6.1 24 -4.5 47 47 S 6 9 30.45 1031 10 16.09344 N/A
2:35 pm 14:35 Sunny 43 6 23 -4.8 46 46 S 8 13 30.45 1031 10 16.09344 N/A
2:55 pm 14:55 Sunny 43 5.9 24 -4.7 47 47 S 6 9 30.42 1030 10 16.09344 N/A
3:15 pm 15:15 Sunny 42 5.7 24 -4.7 48 48 SE 8 13 30.42 1030 10 16.09344 N/A
3:35 pm 15:35 Sunny 42 5.6 24 -4.4 49 49 SSE 5 7 30.42 1030 10 16.09344 N/A
3:55 pm 15:55 Sunny 42 5.5 24 -4.3 50 50 SE 6 9 30.39 1029 10 16.09344 N/A
4:15 pm 16:15 Sunny 41 5.2 25 -4.1 51 51 SE 7 11 30.39 1029 10 16.09344 N/A
4:35 pm 16:35 Sunny 41 5 25 -4.1 52 52 SSE 9 15 30.39 1029 10 16.09344 N/A
4:55 pm 16:55 Sunny 40 4.7 25 -4.1 53 53 SE 5 7 30.36 1028 10 16.09344 N/A
5:15 pm 17:15 Clear 40 4.5 25 -3.9 55 55 SSE 3 6 30.36 1028 10 16.09344 N/A
5:35 pm 17:35 Clear 39 4 25 -3.8 57 57 SSE 6 9 30.33 1027 10 16.09344 N/A
5:55 pm 17:55 Clear 39 3.9 26 -3.4 59 59 SSE 5 7 30.33 1027 10 16.09344 N/A
6:15 pm 18:15 Clear 39 4 26 -3.4 59 59 SSE 6 9 30.33 1027 10 16.09344 N/A
6:35 pm 18:35 Clear 39 3.7 26 -3.6 59 59 SE 6 9 30.33 1027 10 16.09344 N/A
6:55 pm 18:55 Clear 38 3.5 25 -3.7 60 60 SSE 5 7 30.33 1027 10 16.09344 N/A
7:15 pm 19:15 Clear 38 3.5 25 -3.7 60 60 SE 5 7 30.33 1027 10 16.09344 N/A
7:35 pm 19:35 Clear 38 3.5 26 -3.6 60 60 SSE 5 7 30.33 1027 10 16.09344 N/A
7:55 pm 19:55 Clear 38 3.4 25 -3.8 60 60 SE 6 9 30.33 1027 10 16.09344 N/A
8:15 pm 20:15 Clear 38 3.2 25 -4 60 60 Calm 30.33 1027 10 16.09344 N/A
8:35 pm 20:35 Clear 36 2.4 25 -4.1 63 63 Calm 30.33 1027 10 16.09344 N/A
8:55 pm 20:55 Clear 34 1 27 -2.9 75 75 Calm 30.3 1026 10 16.09344 N/A
9:15 pm 21:15 Clear 30 -1.3 25 -4 82 82 Calm 30.3 1026 10 16.09344 N/A
9:35 pm 21:35 Clear 29 -1.6 25 -4 84 84 Calm 30.3 1026 10 16.09344 N/A
9:55 pm 21:55 Clear 28 -2.2 24 -4.4 85 85 Calm 30.3 1026 10 16.09344 N/A
10:15 pm 22:15 Clear 29 -1.9 25 -3.7 88 88 Calm 30.27 1025 10 16.09344 N/A
10:35 pm 22:35 Clear 28 -2.1 26 -3.6 90 90 Calm 30.27 1025 10 16.09344 N/A
10:55 pm 22:55 Clear 27 -2.7 25 -4 91 91 Calm 30.27 1025 10 16.09344 N/A
11:15 pm 23:15 Clear 27 -2.7 25 -3.9 92 92 Calm 30.27 1025 10 16.09344 N/A
11:35 pm 23:35 Clear 27 -2.7 25 -3.8 92 92 Calm 30.24 1024 10 16.09344 N/A
11:55 pm 23:55 Clear 26 -3.3 24 -4.7 90 90 Calm 30.24 1024 10 16.09344 N/A

Powered by AerisWeather